Tracking 31027 objects as of 19-Jul-2025
HD Live streaming from Space Station
objects crossing your sky now

FENGYUN 1C DEB

Track FENGYUN 1C DEB now!
10-day predictions


NORAD ID: 29807
Int'l Code: 1999-025CZ
Perigee: 813.1 km
Apogee: 930.2 km
Inclination: 98.8 °
Period: 102.2 minutes
Semi major axis: 7242 km
RCS: 0.0767 m2 (small)
Launch date: May 10, 1999
Source: People's Republic of China (PRC)
Launch site: Taiyaun Space Center, China (TSC)

Note: This is SATELLITE DEBRIS
Your satellite tracking list
OBJECT A
Track 1 satellite(s)




NASA's NSSDC Master Catalog

Two Line Element Set (TLE):
1 29807U 99025CZ  25199.74628169  .00000353  00000-0  22374-3 0  9992
2 29807  98.7542 208.6082 0080783  27.2286 333.3085 14.08500803950257
Source of the keplerian elements: AFSPC